Location: Unspecified
(33.6682°S, 0.0000°E)
Time: 00:31:58
(UTC+00:00)

Explorer 7 - Visible Passes

Search period start: 17 June 2019 00:00
Search period end: 27 June 2019 00:00
Orbit: 485 x 680 km, 50.3° (Epoch: 16 June)

Date Brightness Start Highest point End Pass type
(mag) Time Alt. Az. Time Alt. Az. Time Alt. Az.
17 Jun 8.5 04:44:24 29° ESE 04:44:24 29° ESE 04:46:47 10° ENE visible
17 Jun 8.1 06:20:45 11° W 06:23:33 23° NW 06:26:39 10° N visible
18 Jun 8.0 04:49:41 37° ENE 04:49:41 37° ENE 04:52:10 10° ENE visible
18 Jun 8.8 06:26:53 10° WNW 06:28:27 12° NW 06:30:02 10° NNW visible
19 Jun 8.1 04:55:02 32° NNE 04:55:02 32° NNE 04:57:14 10° NE visible
20 Jun 8.6 05:00:26 20° N 05:00:26 20° N 05:01:55 10° NNE visible
21 Jun 9.3 05:05:53 11° N 05:05:53 11° N 05:06:03 10° N visible
21 Jun 9.0 18:57:43 10° N 18:59:25 18° NNE 18:59:25 18° NNE visible
22 Jun 8.3 19:01:58 10° NNW 19:04:51 31° N 19:04:51 31° N visible
23 Jun 7.6 19:06:42 10° NW 19:10:16 51° NNW 19:10:16 51° NNW visible
24 Jun 8.9 17:33:12 10° NNE 17:36:06 16° NE 17:38:55 10° E visible
24 Jun 7.6 19:11:45 10° WNW 19:15:37 56° W 19:15:37 56° W visible
25 Jun 8.3 17:36:59 10° N 17:41:00 28° NE 17:44:32 12° ESE visible
25 Jun 8.2 19:17:07 10° WNW 19:20:53 39° WSW 19:20:53 39° WSW visible
26 Jun 7.5 17:41:25 10° NNW 17:45:59 49° NE 17:49:45 13° ESE visible
26 Jun 8.8 19:22:45 10° W 19:26:06 27° SW 19:26:06 27° SW visible
